Location: Csohesd
(46.2500°N, 22.6167°E)
Time: 04:20:41
(UTC+00:00)

Cosmos 724 - Pass Details

Date: 21 October 2021
Orbit: 857 x 937 km, 65.6° (Epoch: 04 December)

Event Time Altitude Azimuth Distance (km) Brightness Sun altitude
Rises 15:55:31 0° 326° (NW) 3,539 7.8 -4.7°
Reaches altitude 10° 15:58:08 10° 331° (NNW) 2,583 7.0 -5.1°
Maximum altitude 16:03:59 53° 48° (NE) 1,076 4.5 -6.1°
Drops below altitude 10° 16:09:41 10° 125° (SE) 2,517 6.3 -7.1°
Sets 16:12:12 0° 130° (SE) 3,442 7.0 -7.6°
